Stations météo

Publicité
Luxeuil, France (7292): Température de l'air & dewpoint: 14.09.2018 07:00:00 - 20.09.2018 07:00:00 (CEST)Luxeuil, France (7292): Température de l'air 5cm: 14.09.2018 07:00:00 - 20.09.2018 07:00:00 (CEST)Luxeuil, France (7292): Température de l'air -20cm & Température de l'air -100cm: 14.09.2018 07:00:00 - 20.09.2018 07:00:00 (CEST)Luxeuil, France (7292): Vitesse du vent & gusts: 14.09.2018 07:00:00 - 20.09.2018 07:00:00 (CEST)Luxeuil, France (7292): Direction du vent: 14.09.2018 07:00:00 - 20.09.2018 07:00:00 (CEST)Luxeuil, France (7292): reduced air pressure: 14.09.2018 07:00:00 - 20.09.2018 07:00:00 (CEST)Luxeuil, France (7292): visibility: 14.09.2018 07:00:00 - 20.09.2018 07:00:00 (CEST)Luxeuil, France (7292): Ensoleillement: 14.09.2018 07:00:00 - 20.09.2018 07:00:00 (CEST)Luxeuil, France (7292): Quantités de précipitations: 14.09.2018 07:00:00 - 20.09.2018 07:00:00 (CEST)
Date & Time tt [°C] td [°C] tt 5cm [°C] tt -20cm [°C] tt -100cm [°C] ff [km/h] ff [knt] fx [km/h] fx [knt] dd ppp [hPa] vv [km] sd [min] rr [mm]
20.09.2018 07:00:00 12,8 12,0 10,3 21,3 19,0 3 1 8 4 E 1021,3 12 0 0,0
20.09.2018 06:00:00 12,6 11,8 10,1 21,5 19,1 4 2 6 3 E 1021,3 19 0 0,0
20.09.2018 05:00:00 12,7 11,3 10,3 21,6 19,0 3 2 7 4 W 1021,3 25 0 0,0
20.09.2018 04:00:00 13,1 11,8 11,6 21,8 19,0 6 3 8 5 ESE 1020,8 15 0 0,0
20.09.2018 03:00:00 13,6 12,3 11,5 21,9 19,0 2 1 4 2 E 1021,1 23 0 0,0
20.09.2018 02:00:00 15,4 12,9 13,1 22,0 19,0 0 0 8 4 N 1020,9 26 0 0,0
20.09.2018 01:00:00 14,8 13,3 13,2 22,1 19,0 0 0 11 6 N 1021,0 24 0 0,0
20.09.2018 00:00:00 17,7 13,6 15,1 22,2 19,0 2 1 7 4 S 1020,6 33 0 0,0
19.09.2018 23:00:00 17,4 14,1 15,0 22,1 19,0 3 2 9 5 E 1020,5 32 0 0,0
19.09.2018 22:00:00 17,6 13,9 15,5 22,1 19,0 2 1 5 3 ESE 1020,2 40 0 0,0
19.09.2018 21:00:00 19,5 14,5 17,7 21,9 19,0 4 2 6 4 E 1019,8 42 0 0,0
19.09.2018 20:00:00 22,5 14,3 19,5 21,7 19,0 2 1 6 3 W 1019,0 50 11 0,0
19.09.2018 19:00:00 27,7 12,9 28,6 21,4 19,0 6 3 15 8 W 1018,2 58 60 0,0
19.09.2018 18:00:00 29,3 12,3 32,5 21,2 19,0 8 5 22 12 WNW 1017,8 37 60 0,0
19.09.2018 17:00:00 29,6 12,1 35,3 20,9 19,0 13 7 27 14 W 1018,1 20 60 0,0
19.09.2018 16:00:00 29,8 14,0 36,3 20,6 19,0 4 2 22 12 WNW 1018,3 49 60 0,0
19.09.2018 15:00:00 29,6 13,4 38,1 20,4 19,0 10 6 20 11 WSW 1018,5 30 60 0,0
19.09.2018 14:00:00 28,4 13,1 37,4 20,3 19,0 6 3 16 9 SE 1019,1 31 60 0,0
19.09.2018 13:00:00 27,7 14,0 34,9 20,2 19,0 4 2 16 8 SSW 1019,6 20 60 0,0
19.09.2018 12:00:00 25,8 14,3 30,7 20,2 19,0 7 4 16 9 SSW 1019,9 29 60 0,0
19.09.2018 11:00:00 24,0 13,8 26,1 20,4 19,0 8 4 14 8 S 1020,3 37 60 0,0
19.09.2018 10:00:00 20,6 14,3 17,4 20,5 19,0 5 3 11 6 ENE 1020,5 36 45 0,0
19.09.2018 09:00:00 16,2 13,5 15,5 20,6 19,0 8 5 11 6 E 1020,6 26 0 0,0
19.09.2018 08:00:00 15,4 13,1 14,9 20,7 19,0 5 3 14 8 SE 1020,5 20 4 0,0
19.09.2018 07:00:00 15,1 12,8 13,2 20,9 19,0 10 5 15 8 NE 1019,8 22 0 0,0
19.09.2018 06:00:00 14,1 12,5 12,8 21,0 19,0 8 4 16 9 E 1019,7 27 0 0,0
19.09.2018 05:00:00 13,7 12,3 12,8 21,1 19,0 10 5 17 9 E 1019,4 26 0 0,0
19.09.2018 04:00:00 14,6 12,8 12,6 21,3 19,0 3 2 7 4 SE 1019,5 21 0 0,0
19.09.2018 03:00:00 14,6 12,6 13,8 21,4 19,0 3 1 7 4 S 1019,3 11 0 0,0
19.09.2018 02:00:00 15,7 13,4 14,2 21,5 19,0 4 2 6 4 E 1019,0 23 0 0,0
19.09.2018 01:00:00 17,0 13,5 15,0 21,6 19,0 4 2 13 7 NE 1018,8 26 0 0,0
19.09.2018 00:00:00 16,9 13,8 15,4 21,6 19,0 11 6 13 7 E 1018,5 30 0 0,0
18.09.2018 23:00:00 18,4 14,9 15,5 21,6 19,0 8 5 16 9 ENE 1018,3 30 0 0,0
18.09.2018 22:00:00 19,0 14,9 16,4 21,5 19,0 3 1 22 12 NNE 1018,1 17 0 0,0
18.09.2018 21:00:00 19,5 14,9 16,9 21,4 19,1 4 2 7 4 E 1017,3 41 0 0,0
18.09.2018 20:00:00 22,5 14,6 19,6 21,1 19,0 4 2 8 4 NE 1016,2 55 4 0,0
18.09.2018 19:00:00 25,3 14,1 24,4 20,9 19,0 6 3 15 8 NW 1015,6 52 4 0,0
18.09.2018 18:00:00 28,4 13,5 30,7 20,6 19,0 9 5 21 11 WNW 1015,0 50 55 0,0
18.09.2018 17:00:00 29,0 14,0 33,6 20,3 19,0 14 8 34 19 W 1014,7 60 60 0,0
18.09.2018 16:00:00 29,3 13,9 37,7 20,0 19,0 14 8 25 13 SW 1014,9 48 60 0,0
18.09.2018 15:00:00 28,8 12,7 36,4 19,8 19,0 14 8 35 19 WSW 1015,7 20 60 0,0
18.09.2018 14:00:00 28,5 14,0 34,4 19,7 19,0 16 9 32 17 SW 1016,2 47 60 0,0
18.09.2018 13:00:00 26,9 14,3 33,6 19,6 19,0 8 5 34 18 W 1016,6 27 60 0,0
18.09.2018 12:00:00 25,8 15,2 28,2 19,7 19,0 15 8 33 18 WSW 1017,6 25 53 0,0
18.09.2018 11:00:00 23,8 15,0 26,1 19,7 19,0 16 9 28 15 SW 1017,9 35 36 0,0
18.09.2018 10:00:00 22,4 14,8 18,9 19,9 19,0 5 3 10 5 ESE 1017,6 57 40 0,0
18.09.2018 09:00:00 17,3 13,8 15,2 20,0 19,0 3 2 9 5 SE 1017,8 22 5 0,0
18.09.2018 08:00:00 14,7 12,0 13,4 20,0 19,1 8 4 13 7 E 1017,8 27 22 0,0
18.09.2018 07:00:00 14,0 11,5 13,2 20,2 19,1 8 5 12 7 E 1017,4 32 0 0,0
18.09.2018 06:00:00 14,3 11,6 13,4 20,4 19,1 9 5 15 8 ENE 1017,0 33 0 0,0
18.09.2018 05:00:00 14,5 11,6 12,6 20,5 19,1 8 4 16 9 ENE 1016,9 33 0 0,0
18.09.2018 04:00:00 13,1 11,2 11,5 20,6 19,0 11 6 16 8 ESE 1017,0 33 0 0,0
18.09.2018 03:00:00 15,0 11,0 13,2 20,7 19,0 6 3 9 5 ENE 1016,8 36 0 0,0
18.09.2018 02:00:00 15,1 10,9 13,7 20,8 19,1 5 3 12 7 ENE 1016,9 38 0 0,0
18.09.2018 01:00:00 16,7 11,4 14,8 20,9 19,1 6 3 12 7 ENE 1016,5 39 0 0,0
18.09.2018 00:00:00 16,7 11,6 14,6 20,9 19,1 5 3 7 4 E 1016,6 41 0 0,0
17.09.2018 23:00:00 18,2 11,7 15,4 20,9 19,1 4 2 8 4 E 1016,5 40 0 0,0
17.09.2018 22:00:00 18,5 12,0 15,1 20,8 19,1 7 4 17 9 ENE 1016,5 50 0 0,0
17.09.2018 21:00:00 19,6 13,1 17,0 20,6 19,1 3 1 9 5 E 1016,2 51 0 0,0
17.09.2018 20:00:00 22,2 13,5 18,0 20,3 19,1 5 3 8 5 NNE 1015,7 60 20 0,0
17.09.2018 19:00:00 28,8 10,5 30,6 20,0 19,1 5 3 14 8 NNW 1014,9 29 60 0,0
17.09.2018 18:00:00 29,2 9,8 33,6 19,7 19,1 4 2 22 12 W 1015,2 58 60 0,0
17.09.2018 17:00:00 29,5 10,1 36,0 19,4 19,1 9 5 18 10 S 1015,7 47 60 0,0
17.09.2018 16:00:00 29,2 11,7 30,5 19,0 19,1 8 5 25 13 S 1016,5 60 46 0,0
17.09.2018 15:00:00 28,7 11,7 34,3 18,7 19,1 13 7 25 13 SSW 1017,3 54 56 0,0
17.09.2018 14:00:00 27,8 13,0 35,4 18,6 19,1 8 4 27 15 SE 1018,0 42 60 0,0
17.09.2018 13:00:00 26,7 13,4 33,7 18,6 19,1 9 5 25 13 SSW 1018,6 19 60 0,0
17.09.2018 12:00:00 25,2 13,4 29,7 18,6 19,1 11 6 23 13 SW 1019,3 57 60 0,0
17.09.2018 11:00:00 22,6 12,5 25,0 18,6 19,1 11 6 19 10 E 1020,0 48 60 0,0
17.09.2018 10:00:00 18,7 11,0 18,5 18,8 19,1 10 6 18 10 E 1020,7 42 60 0,0
17.09.2018 09:00:00 14,8 10,0 12,4 18,9 19,1 14 7 19 10 ENE 1021,3 33 60 0,0
17.09.2018 08:00:00 11,3 8,7 8,9 19,1 19,1 10 6 14 8 ENE 1021,8 28 23 0,0
17.09.2018 07:00:00 10,0 7,9 8,7 19,2 19,1 5 3 11 6 NE 1022,1 48 0 0,0
17.09.2018 06:00:00 9,9 8,2 8,4 19,4 19,2 6 4 10 6 E 1021,9 30 0 0,0
17.09.2018 05:00:00 10,9 8,3 9,2 19,5 19,1 5 3 6 4 E 1021,5 34 0 0,0
17.09.2018 04:00:00 11,2 8,4 9,7 19,7 19,1 3 2 13 7 ENE 1021,4 46 0 0,0
17.09.2018 03:00:00 11,5 8,5 8,9 19,8 19,1 10 5 14 8 E 1021,4 50 0 0,0
17.09.2018 02:00:00 10,7 8,6 9,5 19,9 19,1 8 4 12 6 ENE 1021,9 57 0 0,0
17.09.2018 01:00:00 12,6 8,9 11,0 20,0 19,1 5 3 9 5 ENE 1021,7 52 0 0,0
17.09.2018 00:00:00 13,1 9,2 11,2 20,0 19,1 3 1 11 6 E 1021,7 53 0 0,0
16.09.2018 23:00:00 12,9 9,9 11,1 20,0 19,1 8 5 11 6 ESE 1021,8 53 0 0,0
16.09.2018 22:00:00 14,2 10,6 11,1 19,9 19,2 4 2 6 4 E 1021,7 58 0 0,0
16.09.2018 21:00:00 16,3 10,6 13,1 19,8 19,2 3 2 5 3 E 1021,0 60 0 0,0
16.09.2018 20:00:00 21,0 8,6 14,1 19,5 19,1 2 1 14 8 N 1020,0 48 21 0,0
16.09.2018 19:00:00 24,7 8,2 26,4 19,3 19,2 10 6 17 9 WNW 1019,1 58 60 0,0
16.09.2018 18:00:00 26,0 8,9 30,2 19,0 19,2 9 5 23 13 NW 1018,6 49 60 0,0
16.09.2018 17:00:00 25,6 9,4 29,8 18,7 19,2 10 6 26 14 SW 1018,8 59 43 0,0
16.09.2018 16:00:00 26,2 9,5 32,5 18,5 19,2 12 7 28 15 WSW 1018,9 51 57 0,0
16.09.2018 15:00:00 25,4 9,6 32,8 18,2 19,2 8 4 24 13 WSW 1019,5 52 60 0,0
16.09.2018 14:00:00 25,0 10,1 32,3 18,1 19,2 7 4 22 12 S 1020,2 20 60 0,0
16.09.2018 13:00:00 23,1 10,5 28,9 18,1 19,2 10 6 22 12 S 1020,8 18 60 0,2
16.09.2018 12:00:00 21,8 10,3 26,0 18,2 19,2 16 8 29 16 SSE 1021,3 58 60 0,0
16.09.2018 11:00:00 20,7 10,5 21,3 18,3 19,2 12 6 22 12 SE 1021,8 50 60 0,0
16.09.2018 10:00:00 15,7 10,2 15,6 18,4 19,2 11 6 19 10 ESE 1022,4 41 60 0,0
16.09.2018 09:00:00 11,5 8,7 7,5 18,6 19,2 3 2 9 5 ENE 1023,0 46 60 0,0
16.09.2018 08:00:00 7,7 6,3 4,3 18,8 19,2 0 0 6 3 N 1023,3 4,0 25 0,0
16.09.2018 07:00:00 6,2 5,6 2,7 19,0 19,2 0 0 7 4 N 1023,2 8 0 0,0
16.09.2018 06:00:00 5,0 4,1 1,5 19,2 19,2 3 2 5 3 ESE 1023,3 0,3 0 0,0
16.09.2018 05:00:00 6,7 5,6 2,8 19,4 19,2 4 2 6 3 WSW 1023,6 9 0 0,0
16.09.2018 04:00:00 7,3 6,6 4,8 19,6 19,2 0 0 13 7 N 1023,9 0,6 0 0,0
16.09.2018 03:00:00 6,9 6,0 4,4 19,7 19,2 6 3 9 5 SE 1024,3 22 0 0,0
16.09.2018 02:00:00 8,0 7,1 5,1 19,9 19,2 4 2 8 4 ESE 1024,6 20 0 0,0
16.09.2018 01:00:00 8,4 7,6 5,5 20,0 19,2 5 3 8 5 SE 1024,9 25 0 0,0
16.09.2018 00:00:00 9,5 8,3 6,6 20,1 19,2 3 2 5 3 E 1025,1 40 0 0,0
15.09.2018 23:00:00 11,4 8,8 7,1 20,1 19,2 3 2 5 3 NNE 1024,9 40 0 0,0
15.09.2018 22:00:00 12,1 8,0 7,4 20,1 19,2 4 2 9 5 W 1024,9 38 0 0,0
15.09.2018 21:00:00 14,5 8,0 9,1 20,0 19,2 2 1 8 4 SSW 1024,4 60 0 0,0
15.09.2018 20:00:00 18,2 8,2 14,2 19,8 19,2 6 3 16 8 NW 1023,5 60 24 0,0
15.09.2018 19:00:00 21,0 8,3 22,5 19,7 19,2 10 5 20 11 NNW 1023,0 55 60 0,0
15.09.2018 18:00:00 22,0 8,1 25,7 19,4 19,2 11 6 26 14 N 1022,8 44 60 0,0
15.09.2018 17:00:00 22,2 8,0 28,1 19,1 19,2 14 7 27 15 N 1022,8 31 60 0,0
15.09.2018 16:00:00 22,1 7,9 29,2 18,9 19,2 13 7 27 15 N 1023,0 45 60 0,0
15.09.2018 15:00:00 21,7 7,9 30,2 18,8 19,2 14 8 29 15 NW 1023,7 52 60 0,0
15.09.2018 14:00:00 21,5 8,7 28,5 18,7 19,2 11 6 28 15 NNW 1024,1 27 60 0,0
15.09.2018 13:00:00 20,6 9,5 28,1 18,7 19,2 15 8 26 14 NW 1024,5 50 60 0,0
15.09.2018 12:00:00 19,0 10,3 22,9 18,8 19,2 10 6 18 10 WNW 1024,9 48 60 0,0
15.09.2018 11:00:00 13,5 12,6 16,4 18,9 19,2 5 3 10 5 W 1025,5 15 57 0,0
15.09.2018 10:00:00 11,2 11,0 10,4 19,0 19,2 2 1 8 5 NW 1025,9 1,5 14 0,0
15.09.2018 09:00:00 8,9 8,8 9,0 19,2 19,2 4 2 8 4 WNW 1025,8 0,2 0 0,0
15.09.2018 08:00:00 8,2 8,1 8,2 19,3 19,2 6 3 11 6 NW 1025,6 0,3 0 0,0
15.09.2018 07:00:00 8,7 8,6 7,7 19,5 19,3 2 1 5 3 W 1025,1 0,2 0 0,2
15.09.2018 06:00:00 8,4 8,1 5,6 19,6 19,2 0 0 6 3 N 1024,7 0,1 0 0,0
15.09.2018 05:00:00 9,1 8,8 7,1 19,8 19,2 0 0 7 4 N 1024,2 0,2 0 0,0
15.09.2018 04:00:00 10,1 9,6 8,3 20,0 19,2 2 1 4 2 S 1023,8 0,1 0 0,0
15.09.2018 03:00:00 9,8 9,5 7,5 20,1 19,2 3 2 5 3 ESE 1023,8 0,1 0 0,0
15.09.2018 02:00:00 11,0 10,7 7,5 20,2 19,3 3 2 5 3 NE 1023,7 0,3 0 0,0
15.09.2018 01:00:00 11,4 10,8 7,2 20,4 19,2 3 1 8 4 ENE 1023,3 2,2 0 0,2
15.09.2018 00:00:00 12,5 12,0 7,4 20,5 19,3 5 3 7 4 WNW 1022,8 0,5 0 0,0
14.09.2018 23:00:00 13,0 12,2 8,7 20,5 19,2 5 3 7 4 NW 1022,2 3,2 0 0,0
14.09.2018 22:00:00 14,1 13,1 9,6 20,5 19,3 5 3 7 4 NW 1021,7 1,6 0 0,0
14.09.2018 21:00:00 15,5 13,7 11,9 20,5 19,2 3 2 7 4 SSW 1021,3 19 0 0,0
14.09.2018 20:00:00 18,3 14,4 15,5 20,5 19,3 3 2 10 5 N 1020,4 23 3 -
14.09.2018 19:00:00 19,8 14,6 19,8 20,4 19,2 8 4 18 10 NW 1019,7 24 15 0,0
14.09.2018 18:00:00 20,8 14,4 22,3 20,3 19,2 11 6 19 10 NW 1019,3 50 18 0,0
14.09.2018 17:00:00 21,8 14,4 25,0 20,2 19,2 9 5 20 11 NW 1019,0 51 28 0,0
14.09.2018 16:00:00 21,9 15,0 23,5 20,1 19,2 13 7 22 12 NW 1019,2 33 12 0,0
14.09.2018 15:00:00 21,5 15,3 24,9 20,1 19,2 8 4 17 9 NNW 1019,5 23 24 0,0
14.09.2018 14:00:00 19,5 16,0 20,8 20,1 19,2 6 4 14 8 WNW 1020,2 17 0 0,0
14.09.2018 13:00:00 18,7 15,8 21,1 20,2 19,2 6 3 14 8 NW 1020,6 13 0 0,0
14.09.2018 12:00:00 17,4 15,6 18,3 20,2 19,2 4 2 10 5 N 1020,8 9 0 0,0
14.09.2018 11:00:00 16,6 15,5 17,5 20,3 19,2 5 3 11 6 NW 1020,8 9 0 0,0
14.09.2018 10:00:00 16,2 15,6 16,7 20,4 19,2 7 4 10 6 WNW 1020,4 5 0 0,0
14.09.2018 09:00:00 15,7 15,2 15,4 20,5 19,2 3 2 8 4 W 1020,1 3,1 0 0,0
14.09.2018 08:00:00 15,3 15,0 15,0 20,6 19,2 4 2 7 4 E 1019,8 3,0 0 0,0
14.09.2018 07:00:00 15,5 15,2 12,0 20,7 19,2 6 3 10 5 W 1019,5 0,2 0 0,0

tt = Température de l'air
td = dewpoint
tt 5cm = Température de l'air 5cm
tt -20cm = Température de l'air -20cm
tt -100cm = Température de l'air -100cm
ff = Vitesse du vent
fx = gusts
dd = Direction du vent
ppp = reduced air pressure
vv = visibility
sd = Ensoleillement
rr = Quantités de précipitations

stations d'obs. à proximité